Miscellaneous Local Product
Issued by NWS Hastings, NE

Home | Current Version | Previous Version | Text Only | Print | Product List | Glossary Off
Versions: 1 2 3 4 5 6 7 8 9 10 11 12 13 14 15 16 17 18 19 20 21 22 23 24 25 26 27 28 29 30 31 32 33 34 35 36 37 38 39 40 41 42 43 44 45 46 47 48 49 50

000
AXUS43 KGID 270702
MISGRI

GID CWA HOURLY WEATHER ROUNDUP
NATIONAL WEATHER SERVICE HASTINGS NE
200 AM CDT WED APR 27 2016

NOTE: "FAIR" INDICATES FEW OR NO CLOUDS BELOW 12,000 FEET WITH NO
SIGNIFICANT WEATHER AND/OR OBSTRUCTIONS TO VISIBILITY.

...SOUTH CENTRAL NEBRASKA...

CITY           SKY/WX    TMP DP  RH WIND       PRES   REMARKS
GRAND ISLAND   CLOUDY    58  55  90 NE13      29.59F
HASTINGS       RAIN      56  54  93 E14G24    29.54F FOG
KEARNEY        CLOUDY    52  46  82 N24G33    29.56F
ORD            LGT RAIN  48  47  96 N18       29.64F
YORK           CLOUDY    59  55  88 SE17      29.59S
AURORA         LGT RAIN  58  57  94 E16       29.57F
LEXINGTON      CLOUDY    50  46  85 N13       29.60F
HOLDREGE       CLOUDY    51  48  90 N18       29.57F
HEBRON         CLOUDY    59  56  91 SE9       29.57F

...NEBRASKA PANHANDLE...

CITY           SKY/WX    TMP DP  RH WIND       PRES   REMARKS
CHADRON        CLOUDY    37  36  96 NW7       29.85S WCI  32
ALLIANCE       CLOUDY    34  32  92 NW10      29.82R WCI  26
SCOTTSBLUFF    CLOUDY    32  29  88 NW8       29.86R WCI  25
SIDNEY         CLOUDY    35  31  85 NW22      29.81S WCI  23

...WESTERN AND NORTH CENTRAL NEBRASKA...

CITY           SKY/WX    TMP DP  RH WIND       PRES   REMARKS
VALENTINE      LGT RAIN  44  42  93 N12       29.76F
AINSWORTH      DRIZZLE   45  44  98 N12       29.72F
ONEILL         RAIN      49  48  96 N12       29.71F
BROKEN BOW     LGT RAIN  49  48  97 N16       29.62F
IMPERIAL       CLOUDY    42  38  85 NW17      29.75S
NORTH PLATTE   CLOUDY    44  41  89 N22G29    29.68F
MCCOOK         CLOUDY    46  41  82 NW17      29.67R

...EASTERN NEBRASKA...

CITY           SKY/WX    TMP DP  RH WIND       PRES   REMARKS
NORFOLK        LGT RAIN  53  50  89 E16       29.63F FOG
SO SIOUX CITY  LGT RAIN  54  48  80 E15G25    29.71F
TEKAMAH        RAIN      57  54  89 E17       29.66R FOG
COLUMBUS       CLOUDY    57  52  82 E14G20    29.62S
ALBION         DRIZZLE   53  51  94 NE16      29.62F
OMAHA EPPLEY   RAIN      59  56  89 E22       29.62F FOG
OFFUTT AFB     RAIN      58  58 100 E16G23    29.60F FOG
MILLARD        TSTM      59  57  92 CALM      29.64S
LINCOLN        LGT RAIN  59  56  89 E14G25    29.55F
NEBRASKA CITY  TSTM      59  59 100 E18G30    29.60F
BEATRICE       LGT RAIN  57  56  95 SE18G25   29.54F
FALLS CITY     NOT AVBL

...NORTHERN KANSAS...

CITY           SKY/WX    TMP DP  RH WIND       PRES   REMARKS
GOODLAND       LGT RAIN  42  40  92 N20       29.71S
HILL CITY      CLOUDY    50  45  83 NW24G31   29.58S
NORTON         CLOUDY    48  43  81 W16       29.59
PHILLIPSBURG   CLOUDY    55  48  76 NW15G21   29.53F
SMITH CENTER   CLOUDY    54  50  87 N15       29.50F
BELOIT         CLOUDY    57  55  94 SE6       29.49S
HAYS           CLOUDY    59  50  72 NW14      29.51F
RUSSELL        CLOUDY    60  57  89 NW12      29.47R
CONCORDIA      CLOUDY    59  55  87 SE18G35   29.43F
SALINA         CLOUDY    60  55  83 S9        29.49R
TOPEKA         LGT RAIN  60  58  92 W12       29.62R



USA.gov is the U.S. government's official web portal to all federal, state and local government web resources and services.